• In Deutschland
  • Länderverzeichnis
  • Für 7 Tage
  • Wassertemperatur
  • Satellitenkarten
  • Wetterkarte
  • Widgets
  • user-avatar
    Anmelden

    Stündliche Wetter Brazzaville

    Heute, 16 Juli, Montag

    Zeit Temperatur Niederschläge Wind Luftdruck Luftfeuchtigkeit
    00:00 +29°C° 0 mm 2 m/S 735 mmHg 54%
    01:00 +28°C° 0 mm 3 m/S 735 mmHg 57%
    02:00 +27°C° 0 mm 3 m/S 735 mmHg 62%
    03:00 +26°C° 0 mm 2 m/S 735 mmHg 67%
    04:00 +25°C° 0 mm 2 m/S 735 mmHg 72%
    05:00 +25°C° 0 mm 2 m/S 735 mmHg 73%
    06:00 +25°C° 0 mm 2 m/S 735 mmHg 74%
    07:00 +25°C° 0 mm 2 m/S 736 mmHg 75%
    08:00 +27°C° 0 mm 2 m/S 736 mmHg 66%
    09:00 +29°C° 0 mm 2 m/S 736 mmHg 57%
    10:00 +31°C° 0 mm 3 m/S 736 mmHg 48%
    11:00 +34°C° 0 mm 2 m/S 736 mmHg 42%
    12:00 +36°C° 0 mm 2 m/S 735 mmHg 37%
    13:00 +38°C° 0 mm 2 m/S 735 mmHg 31%
    14:00 +38°C° 0 mm 2 m/S 734 mmHg 29%
    15:00 +37°C° 0 mm 1 m/S 734 mmHg 28%
    16:00 +37°C° 0 mm 1 m/S 733 mmHg 26%
    17:00 +36°C° 0 mm 1 m/S 733 mmHg 30%
    18:00 +35°C° 0 mm 2 m/S 733 mmHg 33%
    19:00 +32°C° 0 mm 2 m/S 733 mmHg 37%
    20:00 +31°C° 0 mm 2 m/S 734 mmHg 42%
    21:00 +30°C° 0 mm 2 m/S 734 mmHg 47%
    22:00 +29°C° 0 mm 2 m/S 735 mmHg 52%
    23:00 +28°C° 0 mm 3 m/S 735 mmHg 57%

    Morgen, 17 Juli, Dienstag

    Zeit Temperatur Niederschläge Wind Luftdruck Luftfeuchtigkeit
    00:00 +27°C° 0 mm 3 m/S 735 mmHg 62%
    01:00 +26°C° 0 mm 3 m/S 736 mmHg 67%
    02:00 +26°C° 0 mm 3 m/S 735 mmHg 71%
    03:00 +25°C° 0 mm 3 m/S 735 mmHg 74%
    04:00 +24°C° 0 mm 2 m/S 735 mmHg 78%
    05:00 +24°C° 0 mm 3 m/S 735 mmHg 78%
    06:00 +24°C° 0 mm 3 m/S 736 mmHg 78%
    07:00 +24°C° 0 mm 3 m/S 736 mmHg 79%
    08:00 +26°C° 0 mm 3 m/S 736 mmHg 71%
    09:00 +27°C° 0 mm 3 m/S 737 mmHg 62%
    10:00 +29°C° 0 mm 3 m/S 737 mmHg 54%
    11:00 +31°C° 0 mm 3 m/S 737 mmHg 48%
    12:00 +34°C° 0 mm 3 m/S 736 mmHg 42%
    13:00 +36°C° 0 mm 3 m/S 735 mmHg 36%
    14:00 +36°C° 0 mm 2 m/S 735 mmHg 34%
    15:00 +36°C° 0 mm 2 m/S 734 mmHg 33%
    16:00 +37°C° 0 mm 2 m/S 733 mmHg 31%
    17:00 +35°C° 0 mm 2 m/S 733 mmHg 35%
    18:00 +32°C° 0 mm 2 m/S 734 mmHg 39%
    19:00 +30°C° 0 mm 2 m/S 734 mmHg 42%
    20:00 +30°C° 0 mm 2 m/S 734 mmHg 45%
    21:00 +29°C° 0 mm 2 m/S 735 mmHg 47%
    22:00 +28°C° 0 mm 2 m/S 736 mmHg 50%
    23:00 +28°C° 0 mm 2 m/S 736 mmHg 54%

    übermorgen, 18 Juli, Mittwoch

    Zeit Temperatur Niederschläge Wind Luftdruck Luftfeuchtigkeit
    00:00 +27°C° 0 mm 3 m/S 736 mmHg 59%
    01:00 +26°C° 0 mm 3 m/S 736 mmHg 63%
    02:00 +25°C° 0 mm 3 m/S 736 mmHg 67%
    03:00 +24°C° 0 mm 3 m/S 735 mmHg 72%
    04:00 +24°C° 0 mm 3 m/S 735 mmHg 76%
    05:00 +22°C° 0 mm 3 m/S 735 mmHg 77%
    06:00 +22°C° 0 mm 3 m/S 736 mmHg 78%
    07:00 +22°C° 0 mm 3 m/S 736 mmHg 79%
    08:00 +25°C° 0 mm 3 m/S 737 mmHg 71%
    09:00 +27°C° 0 mm 3 m/S 737 mmHg 63%
    10:00 +29°C° 0 mm 3 m/S 738 mmHg 55%
    11:00 +31°C° 0 mm 3 m/S 737 mmHg 49%
    12:00 +34°C° 0 mm 3 m/S 736 mmHg 43%
    13:00 +36°C° 0 mm 3 m/S 735 mmHg 37%
    14:00 +36°C° 0 mm 2 m/S 735 mmHg 35%
    15:00 +36°C° 0 mm 2 m/S 734 mmHg 34%
    16:00 +36°C° 0 mm 2 m/S 733 mmHg 32%
    17:00 +35°C° 0 mm 2 m/S 733 mmHg 36%
    18:00 +32°C° 0 mm 2 m/S 734 mmHg 40%
    19:00 +30°C° 0 mm 2 m/S 734 mmHg 44%
    20:00 +29°C° 0 mm 2 m/S 734 mmHg 46%
    21:00 +29°C° 0 mm 2 m/S 735 mmHg 49%
    22:00 +28°C° 0 mm 2 m/S 735 mmHg 51%
    23:00 +27°C° 0 mm 2 m/S 735 mmHg 53%

    19 Juli, Donnerstag

    Zeit Temperatur Niederschläge Wind Luftdruck Luftfeuchtigkeit
    00:00 +27°C° 0 mm 2 m/S 735 mmHg 56%
    01:00 +26°C° 0 mm 2 m/S 735 mmHg 58%
    02:00 +26°C° 0 mm 2 m/S 735 mmHg 62%
    03:00 +25°C° 0 mm 2 m/S 735 mmHg 67%
    04:00 +24°C° 0 mm 2 m/S 735 mmHg 72%
    05:00 +24°C° 0 mm 2 m/S 735 mmHg 74%
    06:00 +24°C° 0 mm 2 m/S 736 mmHg 76%
    07:00 +23°C° 0 mm 2 m/S 736 mmHg 78%
    08:00 +26°C° 0 mm 2 m/S 736 mmHg 68%
    09:00 +28°C° 0 mm 3 m/S 736 mmHg 59%
    10:00 +30°C° 0 mm 3 m/S 737 mmHg 50%
    11:00 +33°C° 0 mm 3 m/S 736 mmHg 43%
    12:00 +35°C° 0 mm 3 m/S 735 mmHg 36%
    13:00 +37°C° 0 mm 2 m/S 734 mmHg 29%
    14:00 +38°C° 0 mm 2 m/S 733 mmHg 28%
    15:00 +38°C° 0 mm 2 m/S 733 mmHg 26%
    16:00 +37°C° 0 mm 1 m/S 732 mmHg 24%
    17:00 +35°C° 0 mm 1 m/S 732 mmHg 28%
    18:00 +34°C° 0 mm 2 m/S 733 mmHg 32%
    19:00 +31°C° 0 mm 2 m/S 733 mmHg 36%
    20:00 +30°C° 0 mm 2 m/S 734 mmHg 39%
    21:00 +29°C° 0 mm 2 m/S 734 mmHg 41%
    22:00 +28°C° 0 mm 2 m/S 735 mmHg 44%
    23:00 +28°C° 0 mm 2 m/S 735 mmHg 47%

    20 Juli, Freitag

    Zeit Temperatur Niederschläge Wind Luftdruck Luftfeuchtigkeit
    00:00 +27°C° 0 mm 2 m/S 734 mmHg 50%
    01:00 +27°C° 0 mm 3 m/S 734 mmHg 53%
    02:00 +26°C° 0 mm 3 m/S 734 mmHg 59%
    03:00 +25°C° 0 mm 2 m/S 734 mmHg 66%
    04:00 +24°C° 0 mm 2 m/S 734 mmHg 73%
    05:00 +24°C° 0 mm 2 m/S 735 mmHg 75%
    06:00 +24°C° 0 mm 2 m/S 735 mmHg 77%
    07:00 +24°C° 0 mm 2 m/S 736 mmHg 79%
    08:00 +26°C° 0 mm 2 m/S 736 mmHg 70%
    09:00 +28°C° 0 mm 3 m/S 736 mmHg 61%
    10:00 +30°C° 0 mm 3 m/S 736 mmHg 52%
    11:00 +33°C° 0 mm 3 m/S 735 mmHg 46%
    12:00 +35°C° 0 mm 3 m/S 735 mmHg 40%
    13:00 +37°C° 0 mm 3 m/S 734 mmHg 34%
    14:00 +37°C° 0 mm 2 m/S 733 mmHg 32%
    15:00 +37°C° 0 mm 2 m/S 732 mmHg 30%
    16:00 +37°C° 0 mm 2 m/S 732 mmHg 29%
    17:00 +36°C° 0 mm 2 m/S 732 mmHg 33%
    18:00 +34°C° 0 mm 2 m/S 733 mmHg 36%
    19:00 +31°C° 0 mm 2 m/S 733 mmHg 40%
    20:00 +30°C° 0 mm 2 m/S 733 mmHg 43%
    21:00 +29°C° 0 mm 2 m/S 734 mmHg 46%
    22:00 +28°C° 0 mm 2 m/S 734 mmHg 49%
    23:00 +28°C° 0 mm 2 m/S 734 mmHg 53%

    21 Juli, Samstag

    Zeit Temperatur Niederschläge Wind Luftdruck Luftfeuchtigkeit
    00:00 +27°C° 0 mm 2 m/S 734 mmHg 56%
    01:00 +27°C° 0 mm 2 m/S 734 mmHg 60%
    02:00 +26°C° 0 mm 2 m/S 734 mmHg 64%
    03:00 +25°C° 0 mm 2 m/S 734 mmHg 68%
    04:00 +25°C° 0 mm 2 m/S 734 mmHg 71%
    05:00 +24°C° 0 mm 2 m/S 735 mmHg 73%
    06:00 +24°C° 0 mm 2 m/S 735 mmHg 74%
    07:00 +24°C° 0 mm 2 m/S 736 mmHg 76%
    08:00 +26°C° 0 mm 2 m/S 736 mmHg 68%
    09:00 +28°C° 0 mm 3 m/S 736 mmHg 60%
    10:00 +30°C° 0 mm 3 m/S 737 mmHg 53%
    11:00 +33°C° 0 mm 3 m/S 736 mmHg 48%
    12:00 +34°C° 0 mm 3 m/S 735 mmHg 43%
    13:00 +36°C° 0 mm 3 m/S 735 mmHg 39%
    14:00 +36°C° 0 mm 3 m/S 734 mmHg 38%
    15:00 +36°C° 0 mm 3 m/S 734 mmHg 38%
    16:00 +35°C° 0 mm 2 m/S 733 mmHg 37%
    17:00 +34°C° 0 mm 2 m/S 734 mmHg 41%
    18:00 +32°C° 0 mm 2 m/S 734 mmHg 45%
    19:00 +30°C° 0 mm 2 m/S 735 mmHg 49%
    20:00 +29°C° 0 mm 3 m/S 735 mmHg 52%
    21:00 +28°C° 0 mm 3 m/S 736 mmHg 55%
    22:00 +28°C° 0 mm 3 m/S 736 mmHg 58%
    23:00 +27°C° 0 mm 3 m/S 736 mmHg 62%
    Mehr zeigen